Time,TemperatureF,DewpointF,PressureIn,WindDirection,WindDirectionDegrees,WindSpeedMPH,WindSpeedGustMPH,Humidity,HourlyPrecipIn,Conditions,Clouds,dailyrainin,SoftwareType,DateUTC
2013-01-28 00:02:00,33.0,24.0,-100.00,South,185,17.0,26.0,68,0.00,,,-99.99,,2013-01-28 07:02:00,
2013-01-28 00:11:00,33.0,25.0,-100.00,South,188,17.0,22.0,74,0.00,,,-99.99,,2013-01-28 07:11:00,
2013-01-28 00:21:00,31.0,26.0,-100.00,South,191,9.0,12.0,80,0.00,,,-99.99,,2013-01-28 07:21:00,
2013-01-28 00:32:00,31.0,26.0,-100.00,South,189,5.0,7.0,79,0.00,,,-99.99,,2013-01-28 07:32:00,
2013-01-28 00:41:00,32.0,25.0,-100.00,South,172,4.0,6.0,76,0.00,,,-99.99,,2013-01-28 07:41:00,
2013-01-28 00:51:00,32.0,24.0,-100.00,South,191,3.0,6.0,72,0.00,,,-99.99,,2013-01-28 07:51:00,
2013-01-28 01:01:00,32.0,24.0,-100.00,SSW,200,4.0,6.0,71,0.00,,,-99.99,,2013-01-28 08:01:00,
2013-01-28 01:11:00,31.0,24.0,-100.00,SW,219,4.0,7.0,73,0.00,,,-99.99,,2013-01-28 08:11:00,
2013-01-28 01:21:00,32.0,23.0,-100.00,SW,233,6.0,12.0,68,0.00,,,-99.99,,2013-01-28 08:21:00,
2013-01-28 01:32:00,31.0,26.0,-100.00,WSW,240,7.0,13.0,79,0.00,,,-99.99,,2013-01-28 08:32:00,
2013-01-28 01:42:00,31.0,26.0,-100.00,WSW,243,10.0,13.0,81,0.03,,,-99.99,,2013-01-28 08:42:00,
2013-01-28 01:52:00,30.0,28.0,-100.00,SW,230,9.0,14.0,95,0.10,,,-99.99,,2013-01-28 08:52:00,
2013-01-28 02:02:00,29.0,29.0,-100.00,SW,226,12.0,17.0,99,0.04,,,-99.99,,2013-01-28 09:02:00,
2013-01-28 02:11:00,29.0,29.0,-100.00,SW,227,12.0,15.0,100,0.01,,,-99.99,,2013-01-28 09:11:00,
2013-01-28 02:21:00,31.0,29.0,-100.00,SSW,210,12.0,18.0,92,0.00,,,-99.99,,2013-01-28 09:21:00,
2013-01-28 02:32:00,32.0,27.0,-100.00,SSW,212,14.0,21.0,81,0.00,,,-99.99,,2013-01-28 09:32:00,
2013-01-28 02:42:00,30.0,27.0,-100.00,WSW,239,9.0,14.0,86,0.01,,,-99.99,,2013-01-28 09:42:00,
2013-01-28 02:51:00,29.0,27.0,-100.00,SW,232,7.0,9.0,91,0.01,,,-99.99,,2013-01-28 09:51:00,
2013-01-28 03:02:00,31.0,27.0,-100.00,South,189,9.0,12.0,88,0.01,,,-99.99,,2013-01-28 10:02:00,
2013-01-28 03:11:00,30.0,28.0,-100.00,South,174,9.0,12.0,92,0.00,,,-99.99,,2013-01-28 10:11:00,
2013-01-28 03:21:00,29.0,28.0,-100.00,South,189,5.0,7.0,93,0.00,,,-99.99,,2013-01-28 10:21:00,
2013-01-28 03:32:00,31.0,25.0,-100.00,South,184,9.0,14.0,80,0.00,,,-99.99,,2013-01-28 10:32:00,
2013-01-28 03:41:00,33.0,23.0,-100.00,South,185,17.0,31.0,66,0.00,,,-99.99,,2013-01-28 10:41:00,
2013-01-28 03:51:00,33.0,23.0,-100.00,South,191,21.0,32.0,66,0.00,,,-99.99,,2013-01-28 10:51:00,
2013-01-28 04:02:00,34.0,22.0,-100.00,South,191,21.0,27.0,62,0.00,,,-99.99,,2013-01-28 11:02:00,
2013-01-28 04:11:00,33.0,21.0,-100.00,SSW,195,18.0,30.0,60,0.00,,,-99.99,,2013-01-28 11:11:00,
2013-01-28 04:22:00,29.0,26.0,-100.00,SW,226,19.0,29.0,88,0.00,,,-99.99,,2013-01-28 11:22:00,
2013-01-28 04:32:00,26.0,25.0,-100.00,West,263,14.0,17.0,99,0.03,,,-99.99,,2013-01-28 11:32:00,
2013-01-28 04:52:00,25.0,25.0,-100.00,West,267,17.0,21.0,100,0.03,,,-99.99,,2013-01-28 11:52:00,
2013-01-28 05:03:00,24.0,24.0,-100.00,WSW,257,17.0,21.0,100,0.13,,,-99.99,,2013-01-28 12:03:00,
2013-01-28 05:11:00,24.0,24.0,-100.00,WSW,250,14.0,19.0,100,0.07,,,-99.99,,2013-01-28 12:11:00,
2013-01-28 05:23:00,24.0,24.0,-100.00,WSW,244,12.0,16.0,100,0.07,,,-99.99,,2013-01-28 12:23:00,
2013-01-28 05:33:00,24.0,24.0,-100.00,WSW,239,9.0,12.0,100,0.10,,,-99.99,,2013-01-28 12:33:00,
2013-01-28 05:42:00,24.0,24.0,-100.00,WSW,246,7.0,9.0,100,0.00,,,-99.99,,2013-01-28 12:42:00,
2013-01-28 05:52:00,23.0,23.0,-100.00,WSW,241,6.0,8.0,100,0.00,,,-99.99,,2013-01-28 12:52:00,
2013-01-28 06:02:00,23.0,23.0,-100.00,West,263,9.0,10.0,100,0.00,,,-99.99,,2013-01-28 13:02:00,
2013-01-28 06:12:00,23.0,23.0,-100.00,WSW,257,9.0,12.0,100,0.01,,,-99.99,,2013-01-28 13:12:00,
2013-01-28 06:23:00,24.0,24.0,-100.00,SW,236,9.0,12.0,99,0.00,,,-99.99,,2013-01-28 13:23:00,
2013-01-28 06:33:00,23.0,23.0,-100.00,South,175,4.0,7.0,99,0.00,,,-99.99,,2013-01-28 13:33:00,
2013-01-28 06:42:00,23.0,23.0,-100.00,SSE,164,4.0,5.0,99,0.00,,,-99.99,,2013-01-28 13:42:00,
2013-01-28 06:52:00,25.0,24.0,-100.00,South,188,4.0,6.0,98,0.00,,,-99.99,,2013-01-28 13:52:00,
2013-01-28 07:03:00,27.0,26.0,-100.00,SSW,206,7.0,10.0,94,0.00,,,-99.99,,2013-01-28 14:03:00,
2013-01-28 07:12:00,26.0,24.0,-100.00,SW,230,9.0,11.0,91,0.00,,,-99.99,,2013-01-28 14:12:00,
2013-01-28 07:22:00,22.0,22.0,-100.00,West,261,15.0,18.0,99,0.00,,,-99.99,,2013-01-28 14:22:00,
2013-01-28 07:33:00,23.0,22.0,-100.00,WSW,254,14.0,16.0,98,0.01,,,-99.99,,2013-01-28 14:33:00,
2013-01-28 07:42:00,22.0,22.0,-100.00,WSW,258,13.0,16.0,99,0.01,,,-99.99,,2013-01-28 14:42:00,
2013-01-28 07:52:00,22.0,22.0,-100.00,WSW,257,14.0,17.0,100,0.01,,,-99.99,,2013-01-28 14:52:00,
2013-01-28 08:03:00,22.0,22.0,-100.00,WSW,253,13.0,16.0,100,0.00,,,-99.99,,2013-01-28 15:03:00,
2013-01-28 08:12:00,22.0,22.0,-100.00,WSW,257,13.0,16.0,100,0.00,,,-99.99,,2013-01-28 15:12:00,
2013-01-28 08:23:00,21.0,21.0,-100.00,West,263,17.0,21.0,99,0.00,,,-99.99,,2013-01-28 15:23:00,
2013-01-28 08:33:00,21.0,21.0,-100.00,WSW,256,14.0,19.0,100,0.00,,,-99.99,,2013-01-28 15:33:00,
2013-01-28 08:43:00,22.0,22.0,-100.00,WSW,246,12.0,14.0,98,0.00,,,-99.99,,2013-01-28 15:43:00,
2013-01-28 08:52:00,22.0,22.0,-100.00,WSW,244,12.0,15.0,97,0.00,,,-99.99,,2013-01-28 15:52:00,
2013-01-28 09:04:00,22.0,22.0,-100.00,WSW,250,11.0,14.0,97,0.00,,,-99.99,,2013-01-28 16:04:00,
2013-01-28 09:12:00,22.0,22.0,-100.00,WSW,254,12.0,18.0,97,0.00,,,-99.99,,2013-01-28 16:12:00,
2013-01-28 09:22:00,22.0,22.0,-100.00,West,261,17.0,22.0,99,0.00,,,-99.99,,2013-01-28 16:22:00,
2013-01-28 09:32:00,21.0,21.0,-100.00,West,268,20.0,24.0,98,0.00,,,-99.99,,2013-01-28 16:32:00,
2013-01-28 09:42:00,19.0,19.0,-100.00,WSW,258,21.0,24.0,98,0.01,,,-99.99,,2013-01-28 16:42:00,
2013-01-28 09:52:00,19.0,19.0,-100.00,West,260,22.0,26.0,98,0.00,,,-99.99,,2013-01-28 16:52:00,
2013-01-28 10:02:00,20.0,19.0,-100.00,WSW,257,24.0,29.0,97,0.00,,,-99.99,,2013-01-28 17:02:00,
2013-01-28 10:12:00,20.0,19.0,-100.00,WSW,258,24.0,29.0,96,0.00,,,-99.99,,2013-01-28 17:12:00,
2013-01-28 10:22:00,20.0,19.0,-100.00,West,263,21.0,24.0,95,0.00,,,-99.99,,2013-01-28 17:22:00,
2013-01-28 10:32:00,20.0,18.0,-100.00,West,263,19.0,25.0,94,0.00,,,-99.99,,2013-01-28 17:32:00,
2013-01-28 10:42:00,20.0,18.0,-100.00,West,260,12.0,17.0,94,0.00,,,-99.99,,2013-01-28 17:42:00,
2013-01-28 10:52:00,20.0,18.0,-100.00,WSW,246,10.0,14.0,94,0.00,,,-99.99,,2013-01-28 17:52:00,
2013-01-28 11:03:00,20.0,18.0,-100.00,WSW,240,9.0,12.0,94,0.00,,,-99.99,,2013-01-28 18:03:00,
2013-01-28 11:12:00,19.0,18.0,-100.00,WSW,239,11.0,16.0,96,0.00,,,-99.99,,2013-01-28 18:12:00,
2013-01-28 11:23:00,20.0,18.0,-100.00,WSW,250,9.0,13.0,95,0.00,,,-99.99,,2013-01-28 18:23:00,
2013-01-28 11:33:00,20.0,18.0,-100.00,WSW,256,10.0,14.0,95,0.00,,,-99.99,,2013-01-28 18:33:00,
2013-01-28 11:42:00,20.0,19.0,-100.00,WSW,254,8.0,12.0,95,0.00,,,-99.99,,2013-01-28 18:42:00,
2013-01-28 11:52:00,20.0,18.0,-100.00,WSW,247,12.0,17.0,94,0.01,,,-99.99,,2013-01-28 18:52:00,
2013-01-28 12:02:00,20.0,18.0,-100.00,West,260,14.0,18.0,95,0.00,,,-99.99,,2013-01-28 19:02:00,
2013-01-28 12:12:00,20.0,18.0,-100.00,West,264,14.0,19.0,93,0.00,,,-99.99,,2013-01-28 19:12:00,
2013-01-28 12:22:00,20.0,17.0,-100.00,WSW,248,16.0,19.0,89,0.00,,,-99.99,,2013-01-28 19:22:00,
2013-01-28 12:32:00,19.0,17.0,-100.00,WSW,246,17.0,22.0,90,0.01,,,-99.99,,2013-01-28 19:32:00,
2013-01-28 12:42:00,20.0,17.0,-100.00,WSW,248,9.0,13.0,91,0.01,,,-99.99,,2013-01-28 19:42:00,
2013-01-28 12:52:00,19.0,17.0,-100.00,WSW,258,9.0,11.0,90,0.00,,,-99.99,,2013-01-28 19:52:00,
2013-01-28 13:02:00,19.0,16.0,-100.00,WSW,258,9.0,16.0,88,0.00,,,-99.99,,2013-01-28 20:02:00,
2013-01-28 13:12:00,19.0,16.0,-100.00,WSW,247,10.0,16.0,86,0.00,,,-99.99,,2013-01-28 20:12:00,
2013-01-28 13:22:00,20.0,15.0,-100.00,WSW,243,12.0,18.0,82,0.00,,,-99.99,,2013-01-28 20:22:00,
2013-01-28 13:33:00,20.0,15.0,-100.00,SW,232,18.0,24.0,82,0.00,,,-99.99,,2013-01-28 20:33:00,
2013-01-28 13:42:00,19.0,15.0,-100.00,SW,223,19.0,24.0,85,0.00,,,-99.99,,2013-01-28 20:42:00,
2013-01-28 13:52:00,19.0,15.0,-100.00,WSW,237,16.0,21.0,84,0.00,,,-99.99,,2013-01-28 20:52:00,
2013-01-28 14:03:00,19.0,15.0,-100.00,SW,233,21.0,27.0,82,0.00,,,-99.99,,2013-01-28 21:03:00,
2013-01-28 14:11:00,19.0,15.0,-100.00,WSW,237,19.0,25.0,85,0.00,,,-99.99,,2013-01-28 21:11:00,
2013-01-28 14:22:00,19.0,15.0,-100.00,SW,236,15.0,19.0,86,0.00,,,-99.99,,2013-01-28 21:22:00,
2013-01-28 14:33:00,19.0,14.0,-100.00,SW,232,17.0,26.0,83,0.00,,,-99.99,,2013-01-28 21:33:00,
2013-01-28 14:42:00,19.0,14.0,-100.00,SW,230,21.0,28.0,80,0.00,,,-99.99,,2013-01-28 21:42:00,
2013-01-28 14:52:00,18.0,13.0,-100.00,SW,232,24.0,30.0,81,0.00,,,-99.99,,2013-01-28 21:52:00,
2013-01-28 15:02:00,18.0,14.0,-100.00,SW,233,21.0,27.0,82,0.00,,,-99.99,,2013-01-28 22:02:00,
2013-01-28 15:11:00,18.0,14.0,-100.00,SW,233,20.0,24.0,82,0.00,,,-99.99,,2013-01-28 22:11:00,
2013-01-28 15:22:00,18.0,14.0,-100.00,WSW,241,21.0,29.0,86,0.00,,,-99.99,,2013-01-28 22:22:00,
2013-01-28 15:32:00,17.0,14.0,-100.00,WSW,246,21.0,24.0,86,0.00,,,-99.99,,2013-01-28 22:32:00,
2013-01-28 15:42:00,17.0,13.0,-100.00,WSW,253,19.0,23.0,87,0.00,,,-99.99,,2013-01-28 22:42:00,
2013-01-28 15:52:00,17.0,13.0,-100.00,WSW,258,17.0,22.0,87,0.00,,,-99.99,,2013-01-28 22:52:00,
2013-01-28 16:02:00,17.0,13.0,-100.00,WSW,257,16.0,21.0,85,0.00,,,-99.99,,2013-01-28 23:02:00,
2013-01-28 16:11:00,17.0,13.0,-100.00,West,261,17.0,21.0,84,0.00,,,-99.99,,2013-01-28 23:11:00,
2013-01-28 16:22:00,16.0,12.0,-100.00,SW,234,22.0,30.0,83,0.00,,,-99.99,,2013-01-28 23:22:00,
2013-01-28 16:32:00,16.0,13.0,-100.00,SW,226,26.0,30.0,87,0.00,,,-99.99,,2013-01-28 23:32:00,
2013-01-28 16:42:00,16.0,12.0,-100.00,SW,224,26.0,33.0,86,0.00,,,-99.99,,2013-01-28 23:42:00,
2013-01-28 16:52:00,16.0,12.0,-100.00,SW,223,24.0,29.0,85,0.00,,,-99.99,,2013-01-28 23:52:00,
2013-01-28 17:02:00,16.0,12.0,-100.00,SW,223,22.0,28.0,85,0.00,,,-99.99,,2013-01-29 00:02:00,
2013-01-28 17:12:00,16.0,12.0,-100.00,SW,220,23.0,29.0,84,0.00,,,-99.99,,2013-01-29 00:12:00,
2013-01-28 17:22:00,16.0,12.0,-100.00,SW,220,22.0,29.0,84,0.00,,,-99.99,,2013-01-29 00:22:00,
2013-01-28 17:32:00,15.0,12.0,-100.00,SW,224,25.0,31.0,87,0.00,,,-99.99,,2013-01-29 00:32:00,
2013-01-28 17:42:00,14.0,12.0,-100.00,SW,229,23.0,29.0,90,0.00,,,-99.99,,2013-01-29 00:42:00,
2013-01-28 17:52:00,14.0,11.0,-100.00,SW,229,22.0,28.0,90,0.00,,,-99.99,,2013-01-29 00:52:00,
2013-01-28 18:02:00,14.0,10.0,-100.00,SW,234,22.0,27.0,86,0.00,,,-99.99,,2013-01-29 01:02:00,
2013-01-28 18:11:00,14.0,10.0,-100.00,SW,232,23.0,29.0,87,0.00,,,-99.99,,2013-01-29 01:11:00,
2013-01-28 18:22:00,13.0,9.0,-100.00,SW,217,26.0,32.0,83,0.00,,,-99.99,,2013-01-29 01:22:00,
2013-01-28 18:32:00,13.0,9.0,-100.00,SW,216,27.0,34.0,85,0.00,,,-99.99,,2013-01-29 01:32:00,
2013-01-28 18:42:00,13.0,9.0,-100.00,SW,219,27.0,35.0,83,0.00,,,-99.99,,2013-01-29 01:42:00,
2013-01-28 18:52:00,13.0,9.0,-100.00,SW,215,29.0,37.0,83,0.00,,,-99.99,,2013-01-29 01:52:00,
2013-01-28 19:02:00,13.0,9.0,-100.00,SW,216,27.0,33.0,83,0.00,,,-99.99,,2013-01-29 02:02:00,
2013-01-28 19:12:00,13.0,9.0,-100.00,SW,215,27.0,33.0,82,0.00,,,-99.99,,2013-01-29 02:12:00,
2013-01-28 19:21:00,13.0,8.0,-100.00,SSW,212,27.0,32.0,81,0.00,,,-99.99,,2013-01-29 02:21:00,
2013-01-28 19:33:00,12.0,8.0,-100.00,SSW,212,29.0,35.0,82,0.00,,,-99.99,,2013-01-29 02:33:00,
2013-01-28 19:41:00,12.0,8.0,-100.00,SSW,210,27.0,34.0,82,0.00,,,-99.99,,2013-01-29 02:41:00,
2013-01-28 19:52:00,13.0,8.0,-100.00,SSW,210,28.0,36.0,81,0.00,,,-99.99,,2013-01-29 02:52:00,
2013-01-28 20:03:00,12.0,8.0,-100.00,SSW,210,27.0,34.0,81,0.00,,,-99.99,,2013-01-29 03:03:00,
2013-01-28 20:11:00,13.0,8.0,-100.00,SSW,210,27.0,34.0,80,0.00,,,-99.99,,2013-01-29 03:11:00,
2013-01-28 20:21:00,12.0,7.0,-100.00,SW,216,27.0,35.0,80,0.00,,,-99.99,,2013-01-29 03:21:00,
2013-01-28 20:32:00,12.0,8.0,-100.00,SW,216,25.0,30.0,81,0.00,,,-99.99,,2013-01-29 03:32:00,
2013-01-28 20:42:00,12.0,8.0,-100.00,SSW,213,26.0,29.0,84,0.00,,,-99.99,,2013-01-29 03:42:00,
2013-01-28 20:52:00,12.0,9.0,-100.00,SSW,212,24.0,29.0,86,0.00,,,-99.99,,2013-01-29 03:52:00,
2013-01-28 21:02:00,12.0,9.0,-100.00,SW,215,21.0,29.0,88,0.00,,,-99.99,,2013-01-29 04:02:00,
2013-01-28 21:11:00,12.0,8.0,-100.00,SW,216,19.0,27.0,85,0.00,,,-99.99,,2013-01-29 04:11:00,
2013-01-28 21:21:00,12.0,8.0,-100.00,SW,217,20.0,26.0,83,0.00,,,-99.99,,2013-01-29 04:21:00,
2013-01-28 21:32:00,12.0,7.0,-100.00,SW,226,19.0,24.0,81,0.00,,,-99.99,,2013-01-29 04:32:00,
2013-01-28 21:41:00,12.0,7.0,-100.00,SW,232,18.0,23.0,81,0.00,,,-99.99,,2013-01-29 04:41:00,
2013-01-28 21:51:00,12.0,7.0,-100.00,SW,233,21.0,27.0,80,0.00,,,-99.99,,2013-01-29 04:51:00,
2013-01-28 22:03:00,12.0,7.0,-100.00,SW,232,23.0,28.0,80,0.00,,,-99.99,,2013-01-29 05:03:00,
2013-01-28 22:12:00,11.0,6.0,-100.00,SW,230,22.0,27.0,80,0.00,,,-99.99,,2013-01-29 05:12:00,
2013-01-28 22:21:00,12.0,6.0,-100.00,SW,226,22.0,29.0,78,0.00,,,-99.99,,2013-01-29 05:21:00,
2013-01-28 22:32:00,11.0,6.0,-100.00,SW,226,24.0,33.0,79,0.00,,,-99.99,,2013-01-29 05:32:00,
2013-01-28 22:42:00,11.0,6.0,-100.00,SW,229,24.0,30.0,80,0.00,,,-99.99,,2013-01-29 05:42:00,
2013-01-28 22:52:00,11.0,6.0,-100.00,SW,227,25.0,33.0,81,0.00,,,-99.99,,2013-01-29 05:52:00,
2013-01-28 23:01:00,11.0,6.0,-100.00,SW,223,26.0,30.0,81,0.00,,,-99.99,,2013-01-29 06:01:00,
2013-01-28 23:11:00,11.0,6.0,-100.00,SW,222,26.0,31.0,81,0.00,,,-99.99,,2013-01-29 06:11:00,
2013-01-28 23:21:00,10.0,6.0,-100.00,SW,220,24.0,31.0,81,0.00,,,-99.99,,2013-01-29 06:21:00,
2013-01-28 23:32:00,10.0,5.0,-100.00,SW,223,22.0,28.0,81,0.00,,,-99.99,,2013-01-29 06:32:00,
2013-01-28 23:41:00,10.0,5.0,-100.00,SW,223,22.0,27.0,81,0.00,,,-99.99,,2013-01-29 06:41:00,
2013-01-28 23:52:00,10.0,5.0,-100.00,SW,222,22.0,27.0,82,0.00,,,-99.99,,2013-01-29 06:52:00,